Location: Dessau
(51.7984°N, 12.2168°E)
Time: 22:30:49
(UTC+01:00)

Envisat - Visible Passes

Search period start: 24 February 2018 00:00
Search period end: 06 March 2018 00:00
Orbit: 764 x 766 km, 98.2° (Epoch: 24 February)

Date Brightness Start Highest point End Pass type
(mag) Time Alt. Az. Time Alt. Az. Time Alt. Az.
24 Feb 3.4 19:44:51 10° S 19:49:54 65° WSW 19:54:59 10° NNW visible
24 Feb 6.0 21:29:05 10° W 21:29:58 10° W 21:30:50 10° WNW visible
25 Feb 2.9 19:08:08 10° SSE 19:13:10 67° ENE 19:18:14 10° N visible
25 Feb 5.3 20:48:51 10° SW 20:52:41 21° W 20:56:31 10° NW visible
26 Feb 3.6 18:32:02 10° SE 18:36:37 36° ENE 18:41:14 10° N visible
26 Feb 4.3 20:10:51 10° SSW 20:15:36 40° W 20:20:25 10° NNW visible
27 Feb 3.1 19:33:39 10° SSE 19:38:44 79° WSW 19:43:52 10° NNW visible
27 Feb 5.8 21:16:18 10° WSW 21:18:38 13° W 21:20:58 10° WNW visible
28 Feb 3.1 18:57:07 10° SE 19:02:04 55° ENE 19:07:02 10° N visible
28 Feb 5.1 20:37:14 10° SSW 20:41:25 25° W 20:45:38 10° NW visible
01 Mar 3.8 18:21:12 10° ESE 18:25:34 30° ENE 18:29:58 10° N visible
01 Mar 3.9 19:59:29 10° S 20:04:25 49° W 20:09:22 10° NNW visible
02 Mar 2.9 19:22:31 10° SSE 19:27:36 86° ENE 19:32:43 10° NNW visible
02 Mar 5.7 21:04:14 10° SW 21:07:20 16° W 21:10:26 10° NW visible
03 Mar 3.3 18:46:09 10° SE 18:50:59 46° ENE 18:55:50 10° N visible
03 Mar 4.8 20:25:42 10° SSW 20:30:10 31° W 20:34:41 10° NNW visible
04 Mar 3.5 19:48:12 10° S 19:53:14 60° W 19:58:17 10° NNW visible
05 Mar 2.9 19:11:25 10° SSE 19:16:28 72° ENE 19:21:33 10° N visible
05 Mar 5.5 20:52:24 10° SW 20:56:02 20° W 20:59:42 10° NW visible
